Preview of NWS' New Version of Forecast
This preview is not operational and should not be used for support decisions.
Latest weather observations around

Augusta, Augusta State Airport (KAUG)

Using English Units (Switch to International System of Units)
Date/ Time (EDT) Wind (mph) Vis. (mi) Weather Sky Cond. Temp (°F) Rel. Humidity Wind Chill (°F) Heat Index (°F) Pressure Precip. (in)
Air Dwpt 6 hour Altimeter (inHg) Sea level (inHg) 1 hr 3 hr 6 hr
Max Min
Oct 15 10:53 SSE 10 10 Mostly Clear FEW075 53        %     30.11 30.11      
Oct 15 09:53 SSE 5 10 Clear CLR 45        % 43   30.15 30.16      
Oct 15 08:53 Calm 10 Clear CLR 41        %     30.17 30.17      
Oct 15 07:53 Calm 10 Clear CLR 36        %     30.17 30.18      
Oct 15 06:53 Calm 10 Clear CLR 35        %     30.18 30.19      
Oct 15 05:53 Calm 10 Clear CLR 35        %     30.18 30.19      
Oct 15 05:13 Calm 4 Fog/Mist FEW002 35        %     30.18        
Oct 15 05:11 Calm 1.25 Fog/Mist FEW002 35        %     30.18        
Oct 15 04:53 S 3 0.25 Fog VV002 34        % 31   30.19 30.19      
Oct 15 04:43 Calm 0.75 Fog/Mist VV002 34        %     30.19        
Oct 15 04:41 Calm 1.5 Fog/Mist FEW002 34        %     30.19        
Oct 15 03:53 NW 5 7 Clear CLR 35        % 31   30.2 30.21      
Oct 15 02:53 Calm 10 Clear CLR 37        %     30.19 30.19      
Oct 15 01:53 Calm 10 Clear CLR 38        %     30.19 30.19      
Oct 15 00:53 SSW 3 10 Clear   39        % 37   30.19 30.2      
Oct 14 23:53 Calm 10 Clear CLR 39        %     30.19 30.2      
Oct 14 22:53 WNW 3 10 Clear CLR 44        % 43   30.19 30.2      
Oct 14 21:53 Calm 10 Clear CLR 43        %     30.18 30.19      
Oct 14 20:53 S 3 10 Clear CLR 46        % 45   30.17 30.17      
Oct 14 19:53 SSE 3 10 Clear CLR 46        % 45   30.16 30.17      
Oct 14 18:53 6 10 Clear CLR 47        % 44   30.14 30.15      
Oct 14 17:53 SW 6 10 Clear CLR 52        %     30.13 30.14      
Oct 14 16:53 W 8 10 Clear CLR 55        %     30.11 30.12      
Oct 14 15:53 WSW 8 10 Clear CLR 56 30     37%     30.11 30.11      
Oct 14 14:53 W 10 10 Clear CLR 55 30     38%     30.11 30.12      
Oct 14 13:53 W 11 10 Clear CLR 53 31     43%     30.11 30.11      
Oct 14 12:53 NW 8 10 Clear CLR 52 30     43%     30.11 30.11      
Oct 14 11:53 WNW 11 10 Clear CLR 51 30     44%     30.12 30.13      
Oct 14 10:53 WNW 7 10 Clear CLR 49 30     48% 46   30.13 30.14      
Oct 14 09:53 WNW 13 10 Clear CLR 46 31     55% 40   30.12 30.13      
Oct 14 08:53 WNW 8 10 Clear CLR 44 31     60% 40   30.13 30.14      
Oct 14 07:53 SW 3 10 Clear CLR 39 32     76% 37   30.11 30.11      
Oct 14 06:53 W 6 10 Clear CLR 37 30     76% 32   30.08 30.09      
Oct 14 05:53 W 6 10 Clear CLR 36 31     82% 31   30.07 30.07      
Oct 14 04:53 Calm 10 Clear CLR 36 32     85%     30.05 30.06      
Oct 14 03:53 WSW 6 10 Clear CLR 38 31     76% 33   30.03 30.04      
Oct 14 02:53 WSW 6 10 Clear CLR 38 32     79% 33   30.02 30.03      
Oct 14 01:53 WNW 6 10 Clear CLR 39 31     72% 35   29.99 30      
Oct 14 00:53 W 5 10 Clear CLR 40 32     73% 37   29.98 29.98      
Oct 13 23:53 WSW 5 10 Clear CLR 40 33     76% 37   29.96 29.97      
Oct 13 22:53 WSW 5 10 Mostly Cloudy BKN050 42 35     76% 39   29.95 29.96      
Oct 13 21:53 W 6 10 Cloudy OVC055 44 34     67% 41   29.92 29.93      
Oct 13 20:53 WNW 5 10 Partly Cloudy SCT065 42 34     73% 39   29.9 29.9      
Oct 13 19:53 WNW 5 10 Cloudy OVC070 43 35     73% 40   29.87 29.88     0
Oct 13 18:53 W 3 10 Clear CLR 42 36     79% 40   29.84 29.85 0    
Oct 13 17:53 WNW 8 10 Mostly Cloudy SCT048 BKN065 45 38     76% 41   29.83 29.83      
Oct 13 16:53 6 10 Cloudy FEW023 BKN048 OVC060 46 40     79% 43   29.79 29.8   0  
Oct 13 15:53 WSW 6 10 Partly Cloudy SCT120 46 41     82% 43   29.78 29.79      
Oct 13 14:53 Calm 10 Cloudy FEW043 SCT060 OVC100 44 42     93%     29.77 29.78 0    
Oct 13 14:39 S 3 10 Cloudy SCT009 BKN039 OVC095 44 42     93% 43   29.77   0    
Oct 13 14:27 SE 3 8 Light Rain BKN009 BKN014 OVC050 44 42     93% 43   29.77   0    
Oct 13 14:14 Calm 2.5 Rain and Fog/Mist BKN009 OVC014 44 41     89%     29.78   0    
Oct 13 14:06 Calm 8 Light Rain BKN011 BKN014 OVC021 44 41     89%     29.78   0    
Oct 13 13:53 SSE 3 10 Cloudy SCT013 BKN019 OVC029 44 41     89% 43   29.77 29.78     0
Oct 13 13:33 SSE 5 10 Cloudy BKN017 BKN026 OVC070 45 41     86% 43   29.77        
Oct 13 12:53 SSE 3 10 Mostly Cloudy FEW014 SCT050 BKN085 45 40     82% 44   29.78 29.78 0    
Oct 13 11:53 SE 3 10 Light Rain BKN047 OVC055 44 41     89% 43   29.79 29.8 0    
Oct 13 10:53 S 3 10 Light Rain BKN040 OVC050 44 41     89% 43   29.79 29.8 0 0  
Oct 13 09:53 NNW 3 10 Light Rain OVC041 43 40     89% 41   29.78 29.78 0    
Oct 13 05:53 Calm 10 Clear CLR 40 36     86%     29.72 29.73      
Oct 13 00:53 W 6 10 Clear CLR 44 31     60% 41   29.7 29.7      
Oct 12 21:53 WNW 7 10 Clear CLR 45 30     56% 41   29.67 29.67      
Oct 12 17:53 NW 9 10 Clear CLR 52 37     57%     29.52 29.52      
Oct 12 11:53 N 11 10 Cloudy OVC043 52 45     77%     29.5 29.51      
Notice The following observation data may not be complete
Oct 12 09:03   10 Mostly Cloudy SCT003 BKN047          %              
Oct 12 08:53 NNW 6 10 Mostly Cloudy BKN003 47 46     97% 44   29.54 29.54      
Oct 12 08:00 NNW 7 10 Cloudy SCT002 OVC050 47 46     97% 44   29.55        
Oct 12 07:53 NNW 7 10 Cloudy OVC055 46 46     100% 42   29.55 29.56      
Oct 12 05:33 NNW 7 10 Cloudy OVC005 46 46     100% 42   29.53        
Oct 12 05:15 N 7 10 Cloudy OVC004 46 46     100% 42   29.54        
Oct 12 03:27 NNE 3 10 Cloudy BKN006 OVC031 46 46     100% 45   29.53        
Oct 12 03:08 N 6 10 Cloudy BKN005 BKN032 OVC095 46 45     96% 43   29.54        
Oct 12 02:07 NNW 8 10 Cloudy BKN006 OVC050 47 46     97% 43   29.56        
Oct 12 01:53 NNW 8 10 Cloudy SCT006 SCT039 OVC050 47 46     97% 43   29.57 29.57 0   0
Oct 12 01:45 NNE 8 9 Light Rain SCT009 BKN043 OVC055 47 46     97% 43   29.55   0    
Oct 12 00:44 NNW 6 10 Cloudy SCT003 BKN013 OVC046 47 47     100% 44   29.58   0    
Oct 11 17:53 N 9 6 Light Rain and Fog/Mist BKN005 OVC014 48 47     96% 44   29.68 29.68 0    
Notice The following observation data may not be complete
Oct 11 14:38   4 Light Rain and Fog/Mist OVC005          %         0    
Oct 11 12:43 NNE 7 2.5 Light Rain and Fog/Mist OVC004 49 49     100% 46   29.81   0    
Oct 11 10:53 N 7 3 Light Rain and Fog/Mist SCT004 OVC008 48 48     100% 45   29.86 29.86 0 0  
Oct 11 08:53 NNE 8 2.5 Rain and Fog/Mist BKN003 OVC007 48 48     100% 44   29.9 29.9 0    
Oct 11 08:45 NNE 6 3 Light Rain and Fog/Mist OVC003 49 48     97% 46   29.91   0    
Oct 11 05:01 NE 8 3 Fog/Mist OVC003 49 48     97% 45   29.95        
Oct 11 03:17 NNE 8 2.5 Fog/Mist OVC004 49 48     97% 45   29.98        
Oct 11 02:44 NNE 6 3 Fog/Mist OVC003 49 48     97% 46   29.99   0    
Oct 10 18:53   10 Cloudy OVC019 56 55     97%     29.99 29.99 0    
Oct 10 17:53 NNE 8 7 Light Rain FEW021 BKN027 OVC035 61 58     90%     29.97 29.97 0    
Oct 10 17:47 NNE 7 3 Light Rain and Fog/Mist SCT029 OVC035 61 59     94%     29.97   0    
Oct 10 00:53 SW 9 10 Clear   69 65     87%     30.04 30.04      
Oct 09 18:53 SW 6 10 Clear CLR 73 66     79%   74 30.09 30.09      
Oct 09 17:53 SSW 7 10 Clear CLR 74 66     76%   75 30.09 30.09      
Oct 09 12:53 6 10 Clear CLR 73 62     68%   73 30.14 30.14      
Oct 08 23:53 7 10 Cloudy OVC009 48 45     89% 45   30.38 30.38      
Oct 08 19:30 S 5 10 Cloudy BKN025 OVC034 50 43     77%     30.44        
Oct 08 15:53 WSW 3 10 Cloudy SCT033 OVC075 52 40     63%     30.48 30.49      
Oct 08 15:42 Calm 10 Cloudy SCT028 BKN033 OVC075 51 40     65%     30.49        
Oct 08 13:53 Calm 10 Cloudy FEW030 BKN080 OVC110 51 38     61%     30.5 30.5      
Oct 08 13:23 Calm 10 Cloudy SCT029 BKN034 OVC110 51 38     61%     30.51        
Oct 08 12:53 3 10 Cloudy BKN029 OVC110 51 37     59%     30.52 30.53      
Oct 08 11:21 NNE 7 10 Cloudy SCT028 OVC034 48 37     66% 45   30.54        
Oct 08 09:53 NNE 9 10 Cloudy OVC033 46 36     68% 41   30.55 30.55      
Oct 08 05:53 NNE 9 10 Cloudy OVC041 44 37     76% 39   30.5 30.5      
Oct 08 04:53 NNE 7 10 Cloudy OVC042 44 37     76% 40   30.49 30.49      
Oct 08 00:26 NE 11 10 Cloudy BKN026 OVC034 46 37     71% 41   30.43        
Oct 08 00:08 NE 13 10 Cloudy SCT028 OVC034 47 38     71% 41   30.42        
Oct 07 17:53 N 8 10 Cloudy OVC039 59 46     62%     30.28 30.28      
Oct 07 15:39 NE 7 10 Partly Cloudy SCT023 60 48     64%     30.24        
Oct 07 14:14 NE 11 10 Cloudy BKN023 OVC047 57 48     72%     30.23        
Oct 07 13:53 NNE 11 10 Cloudy SCT022 OVC048 57 48     72%     30.23 30.23     0
Oct 07 13:51 NNE 13 10 Cloudy SCT022 OVC048 57 48     72%     30.23        
Oct 07 12:53 NNE 15 10 Cloudy OVC016 58 51     78%     30.21 30.22      
Oct 07 11:53 NNE 16 10 Cloudy OVC015 60 53     78%     30.2 30.2      
Oct 07 11:50 NNE 14 10 Cloudy OVC015 61 54     77%     30.2        
Oct 07 07:53 Calm 10 Partly Cloudy SCT110 55 53     93%     30.12 30.12      
Oct 07 06:36 Calm 10 Clear   55 53     93%     30.1        
Oct 07 05:53 Calm 10 Clear   55 53     93%     30.07 30.08      
Oct 07 04:17 S 3 10 Cloudy OVC009 55 52     89%     30.06        
Oct 07 01:38 5 10 Cloudy OVC014 54 50     86%     30.08        
Oct 06 19:53 S 8 10 Cloudy FEW026 OVC038 52 43     71%     30.16 30.16      
Oct 06 17:53 SSE 9 10 Partly Cloudy FEW033 SCT070 53 40     61%     30.17 30.17      
Oct 06 15:53 S 9 10 Mostly Cloudy BKN038 BKN050 58 39     49%     30.18 30.18      
Oct 06 11:53 3 10 Clear CLR 56 36     47%     30.25 30.25      
Oct 06 07:53 NNE 3 10 Clear CLR 44 39     82% 43   30.26 30.27      
Oct 06 05:53 Calm 10 Clear CLR 41 39     93%     30.24 30.24      
Oct 06 04:53 NE 3 10 Clear CLR 44 39     82% 43   30.23 30.23      
Oct 06 03:53 Calm 10 Cloudy OVC110 43 41     93%     30.22 30.22      
Oct 05 23:53 NW 3 10 Clear CLR 44 41     89% 43   30.24 30.24      
Oct 05 20:53 Calm 10 Clear CLR 45 42     90%     30.23 30.24      
Oct 05 17:53 N 3 10 Clear CLR 53 38     56%     30.19 30.2      
Oct 05 16:53 NNW 6 10 Clear CLR 56 37     49%     30.18 30.18      
Oct 05 14:53 N 9 10 Clear CLR 56 36     47%     30.18 30.19      
Oct 05 12:53 NNW 11 10 Clear CLR 54 38     55%     30.22 30.22      
Oct 05 08:53 N 13 10 Clear CLR 47 37     68% 41   30.24 30.24      
Oct 05 07:53 N 9 10 Clear CLR 45 37     74% 40   30.22 30.22      
Oct 05 06:53 N 13 10 Clear CLR 44 36     73% 38   30.19 30.19      
Oct 05 05:53 N 10 10 Clear CLR 45 36     71% 40   30.16 30.17      
Oct 05 04:53 N 13 10 Clear CLR 45 38     76% 39   30.14 30.15      
Oct 05 03:53   10 Clear CLR 48 40     73%     30.1 30.1      
Oct 05 02:53   10 Clear CLR 52 46     80%     30.07 30.07      
Oct 05 01:53 NNW 13 10 Clear CLR 55        %     30.03 30.03      
Oct 05 00:53 N 14 10 Clear CLR 56        %     30.01 30.01      
Oct 05 00:32 N 10 10 Partly Cloudy SCT001 56        %     30        
Oct 05 00:23 NNW 9 3 Fog/Mist BKN001 57        %     29.99        
Oct 05 00:17 NNW 9 1 Fog/Mist VV001 57        %     29.99        
Oct 05 00:09 NW 7 0.25 Fog VV001 57        %     29.98        
Oct 04 23:53 NW 6 0.25 Fog VV002 58        %     29.98 29.98      
Oct 04 23:36 NW 6 0.75 Fog/Mist VV002 57        %     29.97        
Oct 04 23:24 NNW 7 0.25 Fog VV002 57        %     29.96        
Oct 04 23:14 N 9 0.75 Fog/Mist VV002 58        %     29.96        
Oct 04 23:12 N 6 1.75 Fog/Mist FEW002 58        %     29.96        
Oct 04 23:02 WNW 6 3 Fog/Mist CLR 58        %     29.94        
Oct 04 22:53 NNW 5 1.75 Fog/Mist CLR 57        %     29.94 29.94      
Oct 04 21:53 Calm 5 Fog/Mist FEW002 59        %     29.91 29.91      
Oct 04 21:50 Calm 5 Fog/Mist FEW002 59        %     29.91        
Oct 04 21:35 Calm 2.5 Fog/Mist FEW002 59        %     29.91        
Oct 04 20:53 SSE 3 7 Clear CLR 59        %     29.9 29.9      
Oct 04 19:53 SSE 3 9 Mostly Cloudy BKN045 BKN060 60        %     29.89 29.89      
Oct 04 18:53 S 3 10 Cloudy FEW011 OVC043 61        %     29.88 29.88      
Oct 04 18:50 S 3 10 Cloudy SCT011 OVC043 61        %     29.88        
Oct 04 18:19 S 5 10 Cloudy OVC011 62        %     29.87        
Oct 04 17:53 SSW 6 10 Cloudy OVC009 62        %     29.87 29.87      
Oct 04 16:53 6 10 Cloudy OVC008 62        %     29.86 29.85      
Oct 04 15:53 3 10 Cloudy OVC009 61        %     29.86 29.86      
Oct 04 15:23 SSW 9 10 Cloudy OVC009 61        %     29.87        
Oct 04 14:53 S 8 10 Cloudy OVC011 61        %     29.87 29.87      
Oct 04 14:12 7 10 Cloudy OVC010 61        %     29.88        
Oct 04 13:53 7 10 Cloudy OVC007 60        %     29.88 29.88      
Oct 04 12:53 S 8 10 Cloudy OVC006 59        %     29.9 29.9      
Oct 04 11:53 S 9 10 Cloudy OVC009 59        %     29.93 29.93      
Oct 04 10:53 S 10 10 Cloudy OVC009 59        %     29.96 29.96      
Oct 04 09:53 S 7 10 Cloudy OVC007 58        %     29.98 29.98      
Oct 04 09:32 S 7 10 Cloudy OVC005 57        %     29.99        
Oct 04 08:53 S 9 9 Cloudy OVC003 55        %     30 30.01      
Oct 04 07:53 S 8 4 Fog/Mist OVC003 54        %     30.01 30.01      
Oct 04 06:53 S 5 10 Cloudy OVC004 53 53     100%     30 30.01      
Oct 04 05:53 S 5 10 Cloudy OVC004 53 53     100%     30.02 30.02      
Oct 04 05:19 S 5 10 Cloudy BKN004 OVC009 52 52     100%     30.02        
Oct 04 05:07 S 5 10 Cloudy SCT005 BKN009 OVC019 53 52     96%     30.02        
Oct 04 04:53 5 10 Cloudy FEW005 SCT009 OVC019 53 52     96%     30.02 30.02      
Oct 04 04:42 S 5 10 Cloudy FEW005 OVC019 53 52     96%     30.03        
Oct 04 03:53 S 3 10 Cloudy OVC020 53 51     93%     30.04 30.03      
Oct 04 02:53 Calm 10 Cloudy OVC017 52 51     97%     30.05 30.05      
Oct 04 01:53 Calm 10 Cloudy OVC018 52 51     97%     30.06 30.07      
Oct 04 00:53 3 10 Cloudy OVC019 52 51     97%     30.07 30.07      
Oct 03 23:53 Calm 10 Cloudy OVC021 53 50     89%     30.09 30.09      
Oct 03 22:53 NE 3 10 Cloudy OVC024 53 50     89%     30.11 30.11      
Oct 03 21:53 N 5 10 Clear   54 51     90%     30.12 30.12      
Sep 25 09:53 Calm 10 Mostly Cloudy BKN032 46 41     82%     30.59 30.6      
Sep 25 08:53 NE 3 10 Clear CLR 43 38     82% 41   30.61 30.61      
May 15 12:53 NW 14 9 Light Rain FEW029 BKN034 OVC047 60 56     86%     29.77 29.77 0    
May 15 04:53 S 3 0.25 Fog VV001 47 47     100% 46   29.8 29.8      
May 13 19:53 S 7 10 Clear CLR 52 42     69%     30.09 30.09      
May 13 12:53 SSE 5 10 Clear CLR 64 29     27%     30.16 30.16      
May 12 00:53 Calm 10 Clear CLR 43 24     47%     30.16 30.17      
Jun 11 16:53 SW 11 10 Clear CLR 91        %     29.77 29.77      
Jun 11 15:53 SW 15 10 Clear   90 53     29%   88 29.77 29.76      
Jun 11 12:53   10 Clear CLR 87 58     37%   86 29.8 29.79      
Jun 10 13:53 SW 8 10 Clear CLR 77 48     36%   76 29.92 29.92      
Jun 09 00:53 SSE 6 10 Clear CLR 53 42     66%     29.86 29.86      
Jun 08 11:53 5 10 Clear CLR 80        %     29.97 29.97      
Jun 05 22:53 E 9 10 Clear   51 44     77%     29.99 30      
Jun 05 18:53 E 9 10 Cloudy BKN015 OVC040 51 47     86%     29.99 29.99      
Notice The following observation data may not be complete
Jun 05 18:05   10 Cloudy SCT008 OVC015          %